KFY1131 SBRJ-SDAG

Flight info

Callsign KFY1131
Flight time 0h 50m
Altitude 8000
Route VAMIX DCT AG013
Aircraft PA34/L-SDFGRY/S

Departure

Time 2026-05-08 18:47
Airport Santos Dumont Airport (SBRJ)

Arrival

Time 2026-05-08 19:37
Airport Angra dos Reis Airport (SDAG)
Time Latitude Longitude Altitude Speed Heading
2026-05-08 18:43 -22.90494 -43.16473 15 ft 0 kts 90°
2026-05-08 18:43 -22.90494 -43.16471 15 ft 3 kts 90°
2026-05-08 18:44 -22.90492 -43.16445 15 ft 9 kts 84°
2026-05-08 18:44 -22.90489 -43.16342 15 ft 11 kts 118°
2026-05-08 18:44 -22.90511 -43.16319 15 ft 0 kts 175°
2026-05-08 18:45 -22.90532 -43.16318 15 ft 21 kts 175°
2026-05-08 18:46 -22.90880 -43.16293 15 ft 75 kts 176°
2026-05-08 18:46 -22.91508 -43.16250 42 ft 100 kts 174°
2026-05-08 18:46 -22.92231 -43.16201 179 ft 106 kts 165°
2026-05-08 18:46 -22.92772 -43.15697 376 ft 108 kts 109°
2026-05-08 18:47 -22.92540 -43.14891 502 ft 125 kts 56°
2026-05-08 18:47 -22.91989 -43.14130 701 ft 132 kts 53°
2026-05-08 18:47 -22.91410 -43.13326 865 ft 138 kts 56°
2026-05-08 18:47 -22.90863 -43.12465 1042 ft 139 kts 65°
2026-05-08 18:48 -22.90565 -43.11464 1223 ft 140 kts 79°
2026-05-08 18:48 -22.90400 -43.10406 1374 ft 142 kts 83°
2026-05-08 18:48 -22.90291 -43.09338 1498 ft 141 kts 83°
2026-05-08 18:48 -22.90210 -43.08292 1675 ft 137 kts 82°
2026-05-08 18:49 -22.90140 -43.07280 1852 ft 134 kts 82°
2026-05-08 18:49 -22.90075 -43.06283 2043 ft 132 kts 82°
2026-05-08 18:49 -22.90013 -43.05294 2238 ft 129 kts 82°
2026-05-08 18:49 -22.89955 -43.04343 2429 ft 126 kts 82°
2026-05-08 18:50 -22.89898 -43.03411 2616 ft 123 kts 86°
2026-05-08 18:50 -22.89839 -43.02477 2784 ft 122 kts 86°
2026-05-08 18:50 -22.89786 -43.01564 2932 ft 122 kts 86°
2026-05-08 18:50 -22.89880 -43.00652 3067 ft 122 kts 122°
2026-05-08 18:51 -22.90542 -43.00235 3210 ft 111 kts 185°
2026-05-08 18:51 -22.91126 -43.00658 3374 ft 100 kts 241°
2026-05-08 18:51 -22.91460 -43.01302 3540 ft 98 kts 242°
2026-05-08 18:51 -22.91807 -43.01934 3682 ft 97 kts 240°
2026-05-08 18:52 -22.92227 -43.02516 3812 ft 99 kts 230°
2026-05-08 18:52 -22.92732 -43.03032 3943 ft 100 kts 225°
2026-05-08 18:52 -22.93276 -43.03519 4068 ft 101 kts 223°
2026-05-08 18:52 -22.93830 -43.03990 4195 ft 102 kts 222°
2026-05-08 18:53 -22.94395 -43.04459 4318 ft 102 kts 221°
2026-05-08 18:53 -22.94964 -43.04930 4444 ft 103 kts 222°
2026-05-08 18:53 -22.95536 -43.05400 4568 ft 103 kts 222°
2026-05-08 18:53 -22.96106 -43.05869 4691 ft 103 kts 222°
2026-05-08 18:54 -22.96675 -43.06336 4813 ft 103 kts 222°
2026-05-08 18:54 -22.97247 -43.06808 4935 ft 103 kts 222°
2026-05-08 18:54 -22.97813 -43.07273 5068 ft 101 kts 222°
2026-05-08 18:54 -22.98381 -43.07740 5176 ft 102 kts 223°
2026-05-08 18:55 -22.99493 -43.08659 5414 ft 99 kts 223°
2026-05-08 18:55 -22.99843 -43.09243 5533 ft 92 kts 261°
2026-05-08 18:55 -22.99956 -43.09930 5688 ft 94 kts 265°
2026-05-08 18:56 -23.00050 -43.10638 5827 ft 97 kts 266°
2026-05-08 18:56 -23.00143 -43.11383 5968 ft 100 kts 266°
2026-05-08 18:56 -23.00234 -43.12142 6104 ft 104 kts 266°
2026-05-08 18:56 -23.00327 -43.12929 6241 ft 106 kts 265°
2026-05-08 18:57 -23.00422 -43.13732 6379 ft 109 kts 265°
2026-05-08 18:57 -23.00487 -43.14278 6468 ft 111 kts 266°
2026-05-08 18:57 -23.00619 -43.15390 6641 ft 114 kts 266°
2026-05-08 18:57 -23.00687 -43.15969 6730 ft 115 kts 266°
2026-05-08 18:58 -23.00822 -43.17114 6898 ft 116 kts 266°
2026-05-08 18:58 -23.00890 -43.17690 6982 ft 117 kts 266°
2026-05-08 18:58 -23.00994 -43.18579 7114 ft 117 kts 266°
2026-05-08 18:58 -23.01098 -43.19461 7237 ft 118 kts 266°
2026-05-08 18:59 -23.01202 -43.20347 7364 ft 118 kts 266°
2026-05-08 18:59 -23.01305 -43.21224 7487 ft 118 kts 266°
2026-05-08 18:59 -23.01409 -43.22112 7613 ft 118 kts 266°
2026-05-08 18:59 -23.01513 -43.22999 7739 ft 118 kts 266°
2026-05-08 19:00 -23.01615 -43.23878 7863 ft 118 kts 266°
2026-05-08 19:00 -23.01718 -43.24753 7973 ft 118 kts 266°
2026-05-08 19:00 -23.01823 -43.25665 8006 ft 124 kts 266°
2026-05-08 19:00 -23.01935 -43.26623 8010 ft 131 kts 266°
2026-05-08 19:01 -23.02050 -43.27614 8009 ft 136 kts 266°
2026-05-08 19:01 -23.02172 -43.28656 8007 ft 140 kts 266°
2026-05-08 19:01 -23.02298 -43.29719 8003 ft 142 kts 266°
2026-05-08 19:01 -23.02421 -43.30771 8011 ft 143 kts 265°
2026-05-08 19:02 -23.02547 -43.31847 8009 ft 143 kts 265°
2026-05-08 19:02 -23.02673 -43.32922 8009 ft 143 kts 265°
2026-05-08 19:02 -23.02798 -43.33999 8009 ft 143 kts 265°
2026-05-08 19:02 -23.02922 -43.35063 8008 ft 143 kts 265°
2026-05-08 19:03 -23.03047 -43.36137 8008 ft 143 kts 264°
2026-05-08 19:03 -23.03171 -43.37206 8012 ft 142 kts 264°
2026-05-08 19:03 -23.03295 -43.38270 8012 ft 141 kts 264°
2026-05-08 19:03 -23.03416 -43.39316 8013 ft 141 kts 264°
2026-05-08 19:04 -23.03539 -43.40375 8014 ft 141 kts 264°
2026-05-08 19:04 -23.03660 -43.41425 8013 ft 140 kts 264°
2026-05-08 19:04 -23.03782 -43.42478 8013 ft 139 kts 264°
2026-05-08 19:04 -23.03902 -43.43511 8013 ft 138 kts 265°
2026-05-08 19:05 -23.04021 -43.44539 8014 ft 138 kts 265°
2026-05-08 19:05 -23.04140 -43.45570 8015 ft 137 kts 265°
2026-05-08 19:05 -23.04259 -43.46604 8015 ft 137 kts 265°
2026-05-08 19:05 -23.04377 -43.47625 8015 ft 137 kts 265°
2026-05-08 19:06 -23.04494 -43.48646 8015 ft 137 kts 265°
2026-05-08 19:06 -23.04613 -43.49675 8016 ft 137 kts 265°
2026-05-08 19:06 -23.04732 -43.50708 8016 ft 137 kts 265°
2026-05-08 19:06 -23.04849 -43.51725 8016 ft 137 kts 265°
2026-05-08 19:07 -23.04967 -43.52748 8016 ft 137 kts 265°
2026-05-08 19:07 -23.05084 -43.53770 8016 ft 137 kts 265°
2026-05-08 19:07 -23.05202 -43.54797 8016 ft 137 kts 265°
2026-05-08 19:07 -23.05320 -43.55821 8016 ft 137 kts 265°
2026-05-08 19:08 -23.05438 -43.56845 8016 ft 137 kts 265°
2026-05-08 19:08 -23.05555 -43.57873 8016 ft 137 kts 265°
2026-05-08 19:08 -23.05673 -43.58897 8016 ft 137 kts 265°
2026-05-08 19:08 -23.05792 -43.59927 8014 ft 137 kts 267°
2026-05-08 19:09 -23.05910 -43.60948 8020 ft 137 kts 267°
2026-05-08 19:09 -23.06028 -43.61988 8021 ft 138 kts 267°
2026-05-08 19:09 -23.06146 -43.63017 8021 ft 138 kts 268°
2026-05-08 19:09 -23.06264 -43.64050 8021 ft 138 kts 268°
2026-05-08 19:10 -23.06382 -43.65083 8019 ft 136 kts 268°
2026-05-08 19:10 -23.06498 -43.66098 8018 ft 134 kts 268°
2026-05-08 19:10 -23.06611 -43.67084 8019 ft 132 kts 268°
2026-05-08 19:10 -23.06724 -43.68078 8018 ft 130 kts 268°
2026-05-08 19:11 -23.06833 -43.69041 8020 ft 130 kts 268°
2026-05-08 19:11 -23.06945 -43.70030 8022 ft 130 kts 268°
2026-05-08 19:11 -23.07056 -43.71005 8023 ft 131 kts 268°
2026-05-08 19:11 -23.07167 -43.71985 8021 ft 131 kts 268°
2026-05-08 19:12 -23.07278 -43.72962 8020 ft 131 kts 268°
2026-05-08 19:12 -23.07388 -43.73930 8021 ft 130 kts 268°
2026-05-08 19:12 -23.07501 -43.74923 8020 ft 130 kts 268°
2026-05-08 19:12 -23.07611 -43.75889 8021 ft 130 kts 268°
2026-05-08 19:13 -23.07721 -43.76859 8021 ft 130 kts 268°
2026-05-08 19:13 -23.07833 -43.77847 8020 ft 130 kts 268°
2026-05-08 19:13 -23.07943 -43.78822 8021 ft 130 kts 268°
2026-05-08 19:13 -23.08053 -43.79793 8020 ft 130 kts 268°
2026-05-08 19:14 -23.08163 -43.80766 8021 ft 130 kts 268°
2026-05-08 19:14 -23.08274 -43.81742 8021 ft 130 kts 268°
2026-05-08 19:14 -23.08384 -43.82721 8020 ft 130 kts 267°
2026-05-08 19:14 -23.08496 -43.83701 8021 ft 130 kts 268°
2026-05-08 19:15 -23.08606 -43.84680 8021 ft 130 kts 268°
2026-05-08 19:15 -23.08716 -43.85653 8022 ft 130 kts 268°
2026-05-08 19:15 -23.08826 -43.86630 8022 ft 131 kts 268°
2026-05-08 19:15 -23.08937 -43.87614 8021 ft 131 kts 268°
2026-05-08 19:16 -23.09048 -43.88592 8022 ft 130 kts 268°
2026-05-08 19:16 -23.09158 -43.89568 8021 ft 131 kts 268°
2026-05-08 19:16 -23.09268 -43.90546 8022 ft 130 kts 267°
2026-05-08 19:16 -23.09377 -43.91521 8021 ft 130 kts 268°
2026-05-08 19:17 -23.09487 -43.92492 8020 ft 130 kts 267°
2026-05-08 19:17 -23.09598 -43.93478 8019 ft 130 kts 268°
2026-05-08 19:17 -23.09707 -43.94452 8020 ft 130 kts 268°
2026-05-08 19:17 -23.09816 -43.95425 8020 ft 130 kts 268°
2026-05-08 19:18 -23.09925 -43.96397 8020 ft 130 kts 268°
2026-05-08 19:18 -23.10035 -43.97376 8020 ft 130 kts 268°
2026-05-08 19:18 -23.10145 -43.98354 8020 ft 130 kts 268°
2026-05-08 19:18 -23.10253 -43.99322 8021 ft 130 kts 268°
2026-05-08 19:19 -23.10363 -44.00300 8021 ft 130 kts 268°
2026-05-08 19:19 -23.10473 -44.01283 8020 ft 130 kts 268°
2026-05-08 19:19 -23.10580 -44.02247 8020 ft 130 kts 267°
2026-05-08 19:19 -23.10690 -44.03228 8020 ft 130 kts 267°
2026-05-08 19:20 -23.10799 -44.04199 8021 ft 130 kts 268°
2026-05-08 19:20 -23.10834 -44.04519 8020 ft 130 kts 267°
2026-05-08 19:20 -23.11017 -44.06152 8019 ft 130 kts 267°
2026-05-08 19:20 -23.11125 -44.07120 8025 ft 130 kts 267°
2026-05-08 19:21 -23.11235 -44.08107 8031 ft 130 kts 267°
2026-05-08 19:21 -23.11343 -44.09078 8033 ft 130 kts 267°
2026-05-08 19:21 -23.11453 -44.10063 8034 ft 131 kts 267°
2026-05-08 19:21 -23.11561 -44.11041 8035 ft 131 kts 267°
2026-05-08 19:22 -23.11671 -44.12029 8038 ft 131 kts 267°
2026-05-08 19:22 -23.11780 -44.13004 8039 ft 132 kts 267°
2026-05-08 19:22 -23.11890 -44.13991 8039 ft 132 kts 267°
2026-05-08 19:22 -23.12000 -44.14986 8038 ft 132 kts 267°
2026-05-08 19:23 -23.12111 -44.15993 7966 ft 137 kts 266°
2026-05-08 19:23 -23.12227 -44.17040 7842 ft 144 kts 266°
2026-05-08 19:23 -23.12350 -44.18152 7602 ft 154 kts 266°
2026-05-08 19:23 -23.12480 -44.19313 7356 ft 156 kts 265°
2026-05-08 19:24 -23.12614 -44.20506 7026 ft 161 kts 265°
2026-05-08 19:24 -23.12750 -44.21720 6706 ft 163 kts 265°
2026-05-08 19:24 -23.12887 -44.22950 6384 ft 165 kts 264°
2026-05-08 19:24 -23.13025 -44.24195 6056 ft 163 kts 264°
2026-05-08 19:25 -23.13159 -44.25406 5730 ft 161 kts 263°
2026-05-08 19:25 -23.13289 -44.26597 5467 ft 156 kts 262°
2026-05-08 19:25 -23.13413 -44.27732 5318 ft 148 kts 262°
2026-05-08 19:25 -23.13531 -44.28823 5157 ft 139 kts 261°
2026-05-08 19:26 -23.13637 -44.29818 5018 ft 129 kts 257°
2026-05-08 19:26 -23.13742 -44.30791 4897 ft 127 kts 261°
2026-05-08 19:26 -23.13843 -44.31714 4850 ft 119 kts 261°
2026-05-08 19:26 -23.13937 -44.32583 4803 ft 117 kts 261°
2026-05-08 19:27 -23.14036 -44.33477 4794 ft 120 kts 261°
2026-05-08 19:27 -23.14140 -44.34418 4793 ft 130 kts 262°
2026-05-08 19:27 -23.14252 -44.35433 4799 ft 142 kts 262°
2026-05-08 19:27 -23.14376 -44.36568 4712 ft 159 kts 262°
2026-05-08 19:28 -23.14456 -44.37797 4563 ft 162 kts 277°
2026-05-08 19:28 -23.14107 -44.38921 4396 ft 158 kts 299°
2026-05-08 19:28 -23.13546 -44.39955 4177 ft 156 kts 306°
2026-05-08 19:28 -23.12942 -44.40924 3985 ft 154 kts 308°
2026-05-08 19:29 -23.12339 -44.41853 3822 ft 149 kts 310°
2026-05-08 19:29 -23.11744 -44.42756 3684 ft 141 kts 310°
2026-05-08 19:29 -23.11188 -44.43588 3546 ft 135 kts 308°
2026-05-08 19:29 -23.10643 -44.44400 3315 ft 130 kts 304°
2026-05-08 19:30 -23.10119 -44.45184 3101 ft 127 kts 304°
2026-05-08 19:30 -23.09608 -44.45958 2849 ft 127 kts 310°
2026-05-08 19:30 -23.09077 -44.46741 2599 ft 129 kts 309°
2026-05-08 19:30 -23.08275 -44.47167 2339 ft 139 kts 355°
2026-05-08 19:31 -23.07397 -44.46722 2158 ft 141 kts 39°
2026-05-08 19:31 -23.06711 -44.46005 2061 ft 134 kts 41°
2026-05-08 19:31 -23.06030 -44.45334 1952 ft 130 kts 38°
2026-05-08 19:31 -23.05337 -44.44727 1845 ft 127 kts 36°
2026-05-08 19:32 -23.04650 -44.44164 1752 ft 122 kts 34°
2026-05-08 19:32 -23.03959 -44.43616 1668 ft 123 kts 33°
2026-05-08 19:32 -23.03282 -44.43085 1651 ft 116 kts 33°
2026-05-08 19:32 -23.02628 -44.42575 1641 ft 114 kts 35°
2026-05-08 19:33 -23.01991 -44.42071 1630 ft 111 kts 40°
2026-05-08 19:33 -23.01540 -44.41426 1660 ft 103 kts 62°
2026-05-08 19:33 -23.01209 -44.40756 1666 ft 100 kts 66°
2026-05-08 19:33 -23.00899 -44.40080 1656 ft 99 kts 66°
2026-05-08 19:34 -23.00599 -44.39409 1655 ft 98 kts 67°
2026-05-08 19:34 -23.00299 -44.38730 1595 ft 104 kts 67°
2026-05-08 19:34 -22.99976 -44.37999 1465 ft 107 kts 67°
2026-05-08 19:34 -22.99657 -44.37278 1343 ft 105 kts 67°
2026-05-08 19:35 -22.99342 -44.36562 1192 ft 107 kts 67°
2026-05-08 19:35 -22.99014 -44.35816 988 ft 109 kts 67°
2026-05-08 19:35 -22.98685 -44.35070 760 ft 111 kts 67°
2026-05-08 19:35 -22.98319 -44.34351 576 ft 106 kts 63°
2026-05-08 19:36 -22.97995 -44.33654 436 ft 101 kts 70°
2026-05-08 19:36 -22.97814 -44.32938 307 ft 97 kts 82°
2026-05-08 19:36 -22.97723 -44.32220 198 ft 95 kts 88°
2026-05-08 19:36 -22.97623 -44.31516 114 ft 95 kts 83°
2026-05-08 19:37 -22.97541 -44.30805 49 ft 94 kts 82°
2026-05-08 19:37 -22.97457 -44.30206 37 ft 53 kts 86°
2026-05-08 19:37 -22.97440 -44.30043 37 ft 5 kts 26°
2026-05-08 19:37 -22.97434 -44.30054 37 ft 0 kts 256°